Weather Roundup
Issued by NWS Chicago, IL

Home | Current Version | Previous Version | Graphics & Text | Print | Product List | Glossary On
Versions: 1 2 3 4 5 6 7 8 9 10 11 12 13 14 15 16 17 18 19 20 21 22 23 24 25 26 27 28 29 30 31 32 33 34 35 36 37 38 39 40 41 42 43 44 45 46 47 48 49 50
531
NZUS59 KLOT 260608
HRRLOT

CHICAGO AREA WEATHER ROUNDUP
NATIONAL WEATHER SERVICE CHICAGO/ROMEOVILLE IL
100 AM CDT TUE JUL 26 2016

NOTE: "FAIR" INDICATES FEW OR NO CLOUDS BELOW 12,000 FEET WITH NO
SIGNIFICANT WEATHER AND/OR OBSTRUCTIONS TO VISIBILITY.

* THESE STATIONS ARE NOT UNDER NWS QUALITY CONTROL. THEY ALSO MAY NOT
  REPORT WEATHER SUCH AS PRECIPITATION OR FOG.

ILZ005-006-012>014-019>023-260700-
NORTHEAST ILLINOIS

CITY           SKY/WX    TMP DP  RH WIND       PRES   REMARKS
OHARE          CLOUDY    74  64  71 E3        30.03R
6HR MIN TEMP:  74; 6HR MAX TEMP:  84;

MIDWAY         CLOUDY    78  62  57 E3        30.03R HX  80
6HR MIN TEMP:  78; 6HR MAX TEMP:  83;

AURORA         CLOUDY    69  66  90 CALM      30.04R
6HR MIN TEMP:  68; 6HR MAX TEMP:  83;

LANSING*       CLOUDY    71  65  81 CALM      30.03S
JOLIET*        CLOUDY    72  70  94 CALM      30.03R
WAUKEGAN       PTCLDY    67  63  87 CALM      30.03R
6HR MIN TEMP:  66; 6HR MAX TEMP:  79;

DUPAGE AIRPORT CLOUDY    70  64  81 NE3       30.04R
6HR MIN TEMP:  69; 6HR MAX TEMP:  83;

WHEELING       PTCLDY    72  65  78 CALM      30.04R
6HR MIN TEMP:  72; 6HR MAX TEMP:  82;

KANKAKEE*      PTCLDY    69  68  95 CALM      30.04S
MORRIS*        CLOUDY    69  67  93 CALM      30.02S
LEWIS AIRPORT* CLOUDY    69  64  83 NE3       30.03S
NORTHERLY ISL    N/A     72  65  78 CALM        N/A
$$

WIZ051-052-058>065-066-070>072-260700-
SOUTHEAST WISCONSIN

CITY           SKY/WX    TMP DP  RH WIND       PRES   REMARKS
MILWAUKEE      CLEAR     75  64  68 W3        30.03S
6HR MIN TEMP:  73; 6HR MAX TEMP:  81;

KENOSHA*       CLEAR     66  62  87 SW3       30.04R
RACINE*        CLEAR     69  62  78 CALM      30.05R
BURLINGTON     CLEAR     64  63  98 CALM      30.04S
WAUKESHA       CLEAR     66  63  88 CALM      30.06R
WEST BEND      CLEAR     64  63  94 CALM      30.04S
$$

INZ001>003-010>013-019-020-260700-
NORTHWEST INDIANA

CITY           SKY/WX    TMP DP  RH WIND       PRES   REMARKS
GARY*          CLOUDY    70  70 100 CALM      30.04R
6HR MIN TEMP:  70; 6HR MAX TEMP:  82;

MICHIGAN CITY* NOT AVBL
RENSSELAER*    NOT AVBL
VALPARAISO     CLOUDY    68  65  90 CALM      30.04S
$$

LMZ740>746-260700-
SOUTHERN LAKE MICHIGAN

STATION/POSITION TIME  SKY/WX   TEMP WIND        PRES    VSBY
                                AIR  DIR/SP/G
                 (UTC)          (F)  (DEG/KT/KT) (MB)    (MI)
HARRISON CRIB    0520            76  150/  3/  4   N/A
BURNHAM HARBOR   0600            72     CALM       N/A
CALUMET HARBOR   0500            74  110/  3/  3 1016.1R
BURNS HARBOR     0500            78  110/  4/  7 1017.3R
MICHIGAN CITY    0500            74  130/  4/  5   N/A
$$

ABBREVIATIONS USED IN REMARKS
   TC - TEMPERATURE IN CELSIUS
  WCI - WIND CHILL INDEX
   HX - HEAT INDEX
  VSB - VISIBILITY
$$




USA.gov is the U.S. government's official web portal to all federal, state and local government web resources and services.